FW2525 Weather Reports


Display with metric or nautical units.
time (UTC)temp
F
wind
direction
speed
MPH
gust
MPH
rain 1hr
in
rain 24hr
in
rain mn
in
humidity
%
barometer
mb
20190524173058 89 335 1.0 7.0 0.00 0.00 0.00 34 1020.0
20190524171546 89 238 1.0 4.0 0.00 0.00 0.00 36 1020.3
20190524170045 88 247 2.0 6.0 0.00 0.00 0.00 35 1020.3
20190524164534 87 336 1.0 4.0 0.00 0.00 0.00 39 1020.4
20190524163031 86 355 2.0 6.0 0.00 0.00 0.00 42 1020.5
20190524161536 87 5 2.0 5.0 0.00 0.00 0.00 44 1020.6
20190524160011 85 237 3.0 5.0 0.00 0.00 0.00 46 1020.6
20190524154551 84 204 1.0 4.0 0.00 0.00 0.00 59 1020.6
20190524153020 85 257 1.0 5.0 0.00 0.00 0.00 60 1020.7
20190524151507 83 355 2.0 6.0 0.00 0.00 0.00 62 1020.7
20190524150003 83 271 3.0 9.0 0.00 0.01 0.00 62 1020.7
20190524144704 82 5 2.0 8.0 0.00 0.01 0.00 65 1020.7
20190524143153 81 267 2.0 5.0 0.00 0.01 0.00 64 1020.8
20190524141640 80 257 2.0 7.0 0.00 0.01 0.00 66 1020.6
20190524140112 79 311 3.0 8.0 0.00 0.01 0.00 69 1020.7
20190524134707 78 279 1.0 4.0 0.00 0.01 0.00 71 1020.8
20190524133102 77 235 1.0 6.0 0.00 0.01 0.00 72 1020.6
20190524131613 77 259 2.0 4.0 0.00 0.01 0.00 71 1020.9
20190524130047 76 294 0.0 4.0 0.00 0.01 0.00 72 1020.7
20190524124637 75 275 1.0 3.0 0.00 0.01 0.00 72 1020.5
20190524123057 75 228 1.0 2.0 0.00 0.01 0.00 73 1020.5
20190524121556 74 228 1.0 3.0 0.00 0.01 0.00 78 1020.4
20190524120106 73 232 1.0 2.0 0.00 0.01 0.00 80 1020.4
20190524114534 72 246 0.0 2.0 0.00 0.01 0.00 82 1020.5
20190524113104 71 246 0.0 2.0 0.00 0.01 0.00 83 1020.5
20190524111526 69 245 0.0 2.0 0.00 0.01 0.00 85 1020.3
20190524110035 68 262 0.0 1.0 0.00 0.01 0.00 85 1020.0
20190524104547 67 262 0.0 1.0 0.00 0.01 0.00 85 1019.8
20190524103124 67 262 0.0 1.0 0.00 0.01 0.00 85 1019.5
20190524101540 67 262 0.0 2.0 0.00 0.01 0.00 85 1019.5
20190524100024 68 262 0.0 2.0 0.00 0.01 0.00 85 1019.3
20190524094520 67 347 0.0 2.0 0.00 0.01 0.00 85 1019.3
20190524093052 68 347 0.0 1.0 0.00 0.01 0.00 84 1019.2
20190524091546 68 347 0.0 2.0 0.00 0.01 0.00 85 1019.2
20190524090034 69 347 0.0 2.0 0.00 0.01 0.00 85 1019.0
20190524084538 69 347 0.0 1.0 0.00 0.01 0.00 85 1019.0
20190524083038 69 347 0.0 1.0 0.00 0.01 0.00 85 1018.9
20190524081514 69 349 0.0 4.0 0.00 0.01 0.00 85 1019.1
20190524080010 69 349 0.0 2.0 0.00 0.01 0.00 84 1019.0
20190524074513 70 351 1.0 3.0 0.00 0.01 0.00 84 1019.0
20190524073004 70 351 1.0 3.0 0.00 0.01 0.00 84 1019.1
20190524071504 70 207 0.0 3.0 0.00 0.01 0.00 84 1019.0
20190524070210 70 207 0.0 1.0 0.00 0.01 0.00 84 1019.2
20190524064639 70 207 0.0 2.0 0.00 0.01 0.00 84 1019.3
20190524063206 71 207 0.0 2.0 0.00 0.01 0.00 84 1019.4
20190524061640 71 207 0.0 1.0 0.00 0.01 0.00 84 1019.5
20190524060138 71 207 0.0 2.0 0.00 0.02 0.00 84 1019.6
20190524054639 71 207 0.0 2.0 0.00 0.02 0.00 83 1019.8
20190524053201 71 207 0.0 1.0 0.00 0.02 0.00 83 1019.9
20190524051620 72 207 0.0 1.0 0.00 0.02 0.00 83 1020.1
20190524050125 72 207 0.0 2.0 0.00 0.62 0.00 83 1020.2
20190524044638 73 207 0.0 1.0 0.00 0.62 0.00 83 1020.3
20190524043104 72 207 0.0 0.0 0.00 0.62 0.00 83 1020.5
20190524041631 73 207 0.0 1.0 0.00 0.62 0.00 83 1020.6
20190524040141 73 207 0.0 2.0 0.00 0.62 0.62 82 1020.6
20190524034603 74 207 0.0 1.0 0.00 0.62 0.62 82 1020.6
20190524033108 74 207 0.0 1.0 0.00 0.62 0.62 82 1020.6
20190524031612 74 207 0.0 0.0 0.00 0.62 0.62 82 1020.6
20190524030129 74 207 0.0 1.0 0.00 0.62 0.62 82 1020.5
20190524024555 74 207 0.0 1.0 0.00 0.62 0.62 82 1020.3
20190524023138 74 207 0.0 2.0 0.00 0.62 0.62 81 1020.3
20190524021614 75 207 1.0 3.0 0.00 0.62 0.62 81 1020.5
20190524020119 75 207 0.0 2.0 0.00 0.62 0.62 80 1020.3
20190524014709 75 207 0.0 2.0 0.00 0.62 0.62 79 1020.1
20190524013056 76 207 0.0 2.0 0.00 0.62 0.62 78 1020.1
20190524011559 77 207 0.0 2.0 0.00 0.62 0.62 77 1020.1
20190524010115 78 207 0.0 1.0 0.00 0.62 0.62 75 1020.0
20190524004610 79 207 1.0 3.0 0.00 0.62 0.62 74 1019.9
20190524003108 79 200 1.0 3.0 0.00 0.62 0.62 73 1020.0
20190524001623 80 200 1.0 4.0 0.00 0.62 0.62 72 1019.9
20190524000120 80 206 1.0 4.0 0.00 0.62 0.62 71 1019.8
20190523234554 81 217 1.0 4.0 0.00 0.62 0.62 70 1019.8
20190523233052 81 151 1.0 6.0 0.00 0.62 0.62 70 1019.8
20190523231556 81 205 1.0 7.0 0.00 0.62 0.62 70 1020.1
20190523230125 81 232 1.0 4.0 0.00 0.62 0.62 69 1020.3
20190523224558 81 211 0.0 6.0 0.00 0.62 0.62 70 1020.4
20190523223035 82 205 1.0 4.0 0.00 0.62 0.62 68 1020.4
20190523221541 82 184 1.0 5.0 0.00 0.62 0.62 67 1020.6
20190523220053 82 192 1.0 6.0 0.00 0.62 0.62 66 1020.7
20190523214530 80 231 3.0 9.0 0.00 0.62 0.62 68 1020.8
20190523213056 79 150 2.0 8.0 0.00 0.62 0.62 72 1020.8
20190523211556 79 214 3.0 10.0 0.00 0.62 0.62 74 1021.0
20190523210020 80 209 2.0 7.0 0.00 0.62 0.62 72 1021.1
20190523204519 80 182 0.0 5.0 0.00 0.62 0.62 71 1021.3
20190523203044 81 155 2.0 6.0 0.00 0.62 0.62 70 1021.3
20190523201535 81 197 1.0 6.0 0.00 0.62 0.62 69 1021.7
20190523200022 81 188 1.0 5.0 0.00 0.62 0.62 68 1021.7
20190523194515 81 211 1.0 4.0 0.00 0.62 0.62 69 1022.0
20190523193101 82 213 1.0 7.0 0.00 0.62 0.62 67 1022.0
20190523191518 82 225 2.0 6.0 0.00 0.62 0.62 66 1022.4
20190523190007 84 130 3.0 8.0 0.00 0.62 0.62 63 1022.5
20190523184504 84 191 4.0 11.0 0.00 0.62 0.62 64 1022.6
20190523183003 84 204 2.0 8.0 0.00 0.62 0.62 66 1022.6
20190523181656 83 208 4.0 14.0 0.00 0.62 0.62 68 1023.0
20190523180206 83 170 3.0 10.0 0.00 0.62 0.62 65 1023.1
20190523174648 82 212 4.0 11.0 0.00 0.62 0.62 67 1023.2